Powrót do katalogu

THORAD AGENA D DEB

AktywnyPO
NORAD 4921·DEBRIS·🇺🇸 United States

Wystrzelony Apr 8, 1970 z Vandenberg Space Force Base

Loading…

Następne Przeloty (najbliższe 24 godziny)

TLE

ŚwieżeSource: Space-Track

Epoka: Sep 14, 2026, 05:57 UTC

1 04921U 70025FT  26257.24819233  .00003784  00000-0  86668-3 0  9993
2 04921  99.7399  86.3130 0036006 177.5782 182.5591 14.55967002888540

Śledź THORAD AGENA D DEB w czasie rzeczywistym z AllMySat

Download on the App Store